Preview of NWS' New Version of Forecast
This preview is not operational and should not be used for support decisions.

Regional Weather Roundup (RWR)

Issued by National Weather Service (NWS)

                            
000
ASUS43 KBIS 201202
RWRND 

NORTH DAKOTA REGIONAL WEATHER ROUNDUP
NATIONAL WEATHER SERVICE BISMARCK ND
700 AM CDT THU JUN 20 2019

NOTE: "FAIR" INDICATES FEW OR NO CLOUDS BELOW 12,000 FEET WITH NO
SIGNIFICANT WEATHER AND/OR OBSTRUCTIONS TO VISIBILITY.


NDZ001>003-009>011-017-201300-
NORTHWEST NORTH DAKOTA
  
CITY           SKY/WX    TMP DP  RH WIND       PRES   REMARKS
WILLISTON      CLOUDY    56  53  90 CALM      29.69R                  
6HR MIN TEMP:  56; 6HR MAX TEMP:  60; 6HR PCP:  0.44;                

MINOT          HVY RAIN  56  54  93 E9        29.69F VSB 1            
MINOT AFB      LGT RAIN  55  54  98 SE6       29.69S FOG              
$$
 
NDZ018>021-031>035-040>046-201300-
SOUTHWEST NORTH DAKOTA
  
CITY           SKY/WX    TMP DP  RH WIND       PRES   REMARKS
BISMARCK       CLOUDY    58  55  90 E5        29.68R                  
6HR MIN TEMP:  57; 6HR MAX TEMP:  58; 6HR PCP:  0.01;                

DICKINSON      CLOUDY    53  51  93 W7        29.69R                  
GARRISON         N/A     55  55 100 SE9       29.68S                  
6HR MIN TEMP:  55; 6HR MAX TEMP:  57; 6HR PCP:  0.07;                

HETTINGER ARPT CLOUDY    52  51  97 NW5       29.72R                  
$$
 
NDZ004>008-012>016-024-026-027-054-201300-
NORTHEAST NORTH DAKOTA
  
CITY           SKY/WX    TMP DP  RH WIND       PRES   REMARKS
GRAND FORKS    CLOUDY    61  54  77 E6        29.74S                  
DEVILS LAKE    CLOUDY    60  53  77 E12       29.75R                  
$$
 
NDZ022-023-025-028>030-036>039-047>053-201300-
SOUTHEAST NORTH DAKOTA
  
CITY           SKY/WX    TMP DP  RH WIND       PRES   REMARKS
FARGO          CLOUDY    61  55  81 SE9       29.73S                  
6HR MIN TEMP:  58; 6HR MAX TEMP:  61; 6HR PCP:  0.02;                

JAMESTOWN      CLOUDY    59  56  89 E13       29.69S                  
$$